Home   Weather   Bathurst   Past weeks

Flag for Canada Past Weather in Bathurst, New Brunswick, Canada — Yesterday and Last 2 Weeks

Now
9 °F

Clear.


Feels Like: -3 °F
Forecast: 10 / 20 °F
Wind: 7 mph from West

Location: Bathurst Airport

Current Time: Dec 11, 2016 at 4:14:22 am

Latest Report: Dec 11, 2016 at 3:00 am


Visibility: 15 mi

Pressure: 30.19 "Hg

Humidity: 72%

Dew Point: 1 °F

Location of BathurstLocation

Past Weather in Bathurst — Graph

°F

Bathurst Temperature Yesterday

Maximum temperature yesterday: 14 °F (at 12:00 am)
Minimum temperature yesterday: 9 °F (at 5:00 pm)
Average temperature yesterday: 12 °F

High & Low Weather Summary for the Past Weeks

 TemperatureHumidityPressure
High37 °F (Nov 28, 1:00 pm)100% (Nov 26, 8:00 am)30.29 "Hg (Nov 26, 8:00 am)
Low5 °F (Dec 7, 3:00 am)52% (Dec 10, 11:00 am)29.39 "Hg (Dec 2, 1:00 am)
Average26 °F83%29.91 "Hg
* Reported Nov 26 3:00 am — Dec 11 3:00 am, Bathurst, Weather by CustomWeather, © 2016

Note: Actual official high and low records may vary slightly from our data, if they occured in-between our weather recording intervals... More about our weather records

Advertising

Bathurst Weather History for the Previous 24 Hours

Scroll right to see more
 ConditionsComfort  
Time TempWeatherWind HumidityBarometerVisibility
3:00 am
Sun, Dec 11
9 °FClear.7 mph72%30.19 "Hg15 mi
2:00 am9 °FPassing clouds.6 mph66%30.17 "Hg15 mi
1:00 am9 °FPassing clouds.9 mph66%30.16 "Hg15 mi
12:00 am9 °FPassing clouds.12 mph66%30.15 "Hg15 mi
11:00 pm
Sat, Dec 10
10 °FLight snow. Overcast.9 mph61%30.15 "Hg15 mi
10:00 pm10 °FLight snow. Overcast.7 mph67%30.14 "Hg15 mi
9:00 pm10 °FOvercast.7 mph61%30.13 "Hg15 mi
8:00 pm10 °FOvercast.10 mph61%30.12 "Hg15 mi
7:00 pm10 °FOvercast.10 mph61%30.11 "Hg15 mi
6:00 pm9 °FPassing clouds.8 mph61%30.09 "Hg15 mi
5:00 pm9 °FPassing clouds.13 mph56%30.08 "Hg15 mi
4:00 pm10 °FBroken clouds.12 mph56%30.06 "Hg15 mi
3:00 pm10 °FBroken clouds.12 mph52%30.03 "Hg15 mi
2:00 pm12 °FBroken clouds.17 mph52%30.01 "Hg15 mi
1:00 pm14 °FPartly sunny.13 mph52%30.01 "Hg15 mi
12:00 pm14 °FScattered clouds.16 mph52%30.01 "Hg15 mi
11:00 am14 °FPartly sunny.15 mph52%30.01 "Hg15 mi
10:00 am14 °FScattered clouds.14 mph57%30.01 "Hg15 mi
9:00 am12 °FBroken clouds.9 mph67%29.99 "Hg15 mi
8:00 am14 °FPassing clouds.16 mph62%29.97 "Hg15 mi
7:00 am14 °FPassing clouds.10 mph62%29.95 "Hg15 mi
6:00 am14 °FPassing clouds.13 mph62%29.92 "Hg15 mi
5:00 am12 °FPassing clouds.15 mph67%29.90 "Hg15 mi
4:00 am12 °FClear.14 mph67%29.88 "Hg15 mi
Weather by CustomWeather, © 2016

See weather overviewHow to use our weather pages